sat.trackr.live / text

‹ back to catalog

STARLINK-4554

NORAD 53626 · 2022-104AQ

PAYLOAD ACTIVE UNKNOWN

§ Identity

Operator
Country
US
Launch date
2022-08-28
Launch site
AFETR
Launch vehicle
Mass (kg)
RCS (m²)

Purposes: comms

External: N2YO · Heavens-Above · Gunter

§ Orbital elements

Epoch: 2026-09-20T04:45:06.338592Z

Period
93.90 min
Inclination
53.1591°
Eccentricity
0.0001067
Mean motion
15.33550029 rev/d
Perigee alt
464.5 km
Apogee alt
466.0 km
Semi-major
6,843.4 km
B*
1.3245e-5
RAAN
69.4569°
Arg perigee
92.8926°
Mean anomaly
267.2198°
Rev number
22,527

§ Raw data

STARLINK-45541 53626U 22104AQ  26263.19799003  .00000063  00000+0  13245-4 0  99952 53626  53.1591  69.4569 0001067  92.8926 267.2198 15.33550029225273

JSON: /api/v1/satellites/53626 · /tle

For live sub-satellite position, see the globe view (requires WebGL).

§ Visibility from observer

Set your observer location to see the next 7 days of passes ≥ 10°. The values pass through the URL so the page stays shareable.

No JS? Fill the form by hand. The geolocation button needs JavaScript.